• In Portugal
  • List of Countries
  • For 7 days
  • Water Temperature
  • Satellite Maps
  • Weather Map
  • Weather Widgets
  • user-avatar
    Login

    Hourly Weather Ganja

    Today, 28 May, Monday

    Time Temperature Precipitation Wind Pressure Humidity
    00:00 +17°C° 0 mm 3 mps 731 mmHg 70%
    01:00 +16°C° 0 mm 2 mps 731 mmHg 71%
    02:00 +16°C° 0 mm 2 mps 731 mmHg 72%
    03:00 +15°C° 0 mm 1 mps 730 mmHg 73%
    04:00 +16°C° 0 mm 1 mps 730 mmHg 71%
    05:00 +16°C° 0 mm 1 mps 730 mmHg 69%
    06:00 +16°C° 0 mm 1 mps 729 mmHg 68%
    07:00 +19°C° 0 mm 1 mps 729 mmHg 64%
    08:00 +21°C° 0 mm 1 mps 729 mmHg 60%
    09:00 +21°C° 0 mm 2 mps 728 mmHg 56%
    10:00 +24°C° 0 mm 2 mps 728 mmHg 54%
    11:00 +25°C° 0 mm 2 mps 727 mmHg 51%
    12:00 +27°C° 0 mm 1 mps 727 mmHg 48%
    13:00 +28°C° 0 mm 2 mps 726 mmHg 47%
    14:00 +28°C° 0 mm 2 mps 726 mmHg 45%
    15:00 +29°C° 0 mm 2 mps 725 mmHg 44%
    16:00 +29°C° 0.1 mm 2 mps 725 mmHg 47%
    17:00 +28°C° 0.1 mm 2 mps 725 mmHg 49%
    18:00 +28°C° 0.1 mm 2 mps 725 mmHg 52%
    19:00 +26°C° 0 mm 2 mps 725 mmHg 55%
    20:00 +24°C° 0 mm 2 mps 726 mmHg 58%
    21:00 +23°C° 0 mm 2 mps 726 mmHg 61%
    22:00 +21°C° 0 mm 2 mps 726 mmHg 62%
    23:00 +21°C° 0 mm 2 mps 726 mmHg 63%

    Tomorrow, 29 May, Tuesday

    Time Temperature Precipitation Wind Pressure Humidity
    00:00 +21°C° 0 mm 2 mps 726 mmHg 64%
    01:00 +20°C° 0 mm 2 mps 726 mmHg 66%
    02:00 +21°C° 0 mm 1 mps 726 mmHg 68%
    03:00 +20°C° 0 mm 1 mps 726 mmHg 70%
    04:00 +21°C° 0 mm 1 mps 726 mmHg 69%
    05:00 +21°C° 0 mm 1 mps 726 mmHg 69%
    06:00 +21°C° 0 mm 1 mps 726 mmHg 69%
    07:00 +23°C° 0 mm 2 mps 726 mmHg 65%
    08:00 +24°C° 0 mm 3 mps 726 mmHg 61%
    09:00 +25°C° 0 mm 4 mps 726 mmHg 57%
    10:00 +26°C° 0 mm 5 mps 726 mmHg 55%
    11:00 +26°C° 0 mm 6 mps 726 mmHg 54%
    12:00 +27°C° 0 mm 6 mps 726 mmHg 52%
    13:00 +26°C° 0.3 mm 6 mps 726 mmHg 55%
    14:00 +24°C° 0.3 mm 7 mps 726 mmHg 58%
    15:00 +24°C° 0.3 mm 7 mps 726 mmHg 60%
    16:00 +23°C° 0.5 mm 6 mps 726 mmHg 64%
    17:00 +22°C° 0.5 mm 6 mps 726 mmHg 67%
    18:00 +21°C° 0.5 mm 5 mps 726 mmHg 70%
    19:00 +20°C° 0 mm 6 mps 726 mmHg 70%
    20:00 +20°C° 0 mm 6 mps 726 mmHg 70%
    21:00 +19°C° 0 mm 6 mps 727 mmHg 70%
    22:00 +19°C° 0 mm 6 mps 727 mmHg 70%
    23:00 +19°C° 0 mm 6 mps 727 mmHg 69%

    Day after tomorrow, 30 May, Wednesday

    Time Temperature Precipitation Wind Pressure Humidity
    00:00 +17°C° 0 mm 6 mps 726 mmHg 68%
    01:00 +17°C° 0 mm 6 mps 726 mmHg 68%
    02:00 +17°C° 0 mm 5 mps 726 mmHg 68%
    03:00 +16°C° 0 mm 5 mps 726 mmHg 68%
    04:00 +16°C° 0 mm 5 mps 726 mmHg 68%
    05:00 +16°C° 0 mm 5 mps 726 mmHg 68%
    06:00 +16°C° 0 mm 5 mps 726 mmHg 68%
    07:00 +17°C° 0 mm 5 mps 727 mmHg 65%
    08:00 +19°C° 0 mm 5 mps 727 mmHg 63%
    09:00 +21°C° 0 mm 5 mps 727 mmHg 60%
    10:00 +21°C° 0 mm 5 mps 727 mmHg 59%
    11:00 +22°C° 0 mm 4 mps 726 mmHg 58%
    12:00 +22°C° 0 mm 4 mps 726 mmHg 57%
    13:00 +24°C° 0 mm 3 mps 726 mmHg 55%
    14:00 +24°C° 0 mm 3 mps 725 mmHg 54%
    15:00 +25°C° 0 mm 3 mps 725 mmHg 53%
    16:00 +25°C° 0 mm 3 mps 725 mmHg 54%
    17:00 +24°C° 0 mm 3 mps 725 mmHg 55%
    18:00 +24°C° 0 mm 2 mps 725 mmHg 56%
    19:00 +23°C° 0 mm 2 mps 725 mmHg 59%
    20:00 +21°C° 0 mm 2 mps 725 mmHg 61%
    21:00 +20°C° 0 mm 2 mps 725 mmHg 64%
    22:00 +20°C° 0 mm 2 mps 725 mmHg 65%
    23:00 +20°C° 0 mm 1 mps 725 mmHg 65%

    31 May, Thursday

    Time Temperature Precipitation Wind Pressure Humidity
    00:00 +20°C° 0 mm 1 mps 725 mmHg 66%
    01:00 +19°C° 0 mm 1 mps 724 mmHg 67%
    02:00 +19°C° 0 mm 1 mps 724 mmHg 67%
    03:00 +17°C° 0 mm 0 mps 723 mmHg 67%
    04:00 +19°C° 0 mm 1 mps 723 mmHg 65%
    05:00 +20°C° 0 mm 1 mps 723 mmHg 64%
    06:00 +20°C° 0 mm 1 mps 723 mmHg 62%
    07:00 +21°C° 0 mm 1 mps 722 mmHg 59%
    08:00 +22°C° 0 mm 1 mps 722 mmHg 57%
    09:00 +23°C° 0 mm 1 mps 722 mmHg 54%
    10:00 +24°C° 0 mm 2 mps 721 mmHg 52%
    11:00 +26°C° 0 mm 2 mps 721 mmHg 50%
    12:00 +27°C° 0 mm 2 mps 720 mmHg 47%
    13:00 +27°C° 0.3 mm 2 mps 720 mmHg 47%
    14:00 +28°C° 0.3 mm 2 mps 719 mmHg 46%
    15:00 +28°C° 0.3 mm 2 mps 718 mmHg 46%
    16:00 +27°C° 0.4 mm 2 mps 718 mmHg 50%
    17:00 +27°C° 0.4 mm 2 mps 718 mmHg 54%
    18:00 +26°C° 0.4 mm 2 mps 718 mmHg 58%
    19:00 +25°C° 1 mm 2 mps 719 mmHg 63%
    20:00 +23°C° 1 mm 2 mps 719 mmHg 68%
    21:00 +21°C° 1 mm 2 mps 720 mmHg 73%
    22:00 +21°C° 0 mm 2 mps 720 mmHg 73%
    23:00 +21°C° 0 mm 2 mps 720 mmHg 72%

    1 June, Friday

    Time Temperature Precipitation Wind Pressure Humidity
    00:00 +20°C° 0 mm 3 mps 719 mmHg 71%
    01:00 +20°C° 0 mm 3 mps 719 mmHg 71%
    02:00 +20°C° 0 mm 3 mps 719 mmHg 71%
    03:00 +19°C° 0 mm 3 mps 719 mmHg 71%
    04:00 +20°C° 0 mm 4 mps 720 mmHg 69%
    05:00 +20°C° 0 mm 4 mps 720 mmHg 67%
    06:00 +21°C° 0 mm 4 mps 720 mmHg 65%
    07:00 +23°C° 0 mm 4 mps 720 mmHg 59%
    08:00 +26°C° 0 mm 4 mps 720 mmHg 53%
    09:00 +27°C° 0 mm 4 mps 720 mmHg 47%
    10:00 +29°C° 0 mm 4 mps 720 mmHg 45%
    11:00 +30°C° 0 mm 3 mps 720 mmHg 42%
    12:00 +31°C° 0 mm 3 mps 719 mmHg 40%
    13:00 +31°C° 0 mm 3 mps 719 mmHg 39%
    14:00 +33°C° 0 mm 3 mps 719 mmHg 37%
    15:00 +33°C° 0 mm 3 mps 719 mmHg 36%
    16:00 +33°C° 0 mm 3 mps 719 mmHg 39%
    17:00 +31°C° 0 mm 3 mps 719 mmHg 41%
    18:00 +30°C° 0 mm 3 mps 719 mmHg 44%
    19:00 +28°C° 0.1 mm 3 mps 719 mmHg 48%
    20:00 +26°C° 0.1 mm 2 mps 720 mmHg 51%
    21:00 +24°C° 0.1 mm 2 mps 720 mmHg 55%
    22:00 +24°C° 0.3 mm 2 mps 720 mmHg 57%
    23:00 +23°C° 0.3 mm 2 mps 720 mmHg 59%

    2 June, Saturday

    Time Temperature Precipitation Wind Pressure Humidity
    00:00 +22°C° 0.3 mm 1 mps 720 mmHg 61%
    01:00 +21°C° 0 mm 2 mps 720 mmHg 61%
    02:00 +21°C° 0 mm 2 mps 720 mmHg 61%
    03:00 +20°C° 0 mm 2 mps 720 mmHg 61%
    04:00 +21°C° 0 mm 2 mps 720 mmHg 60%
    05:00 +21°C° 0 mm 3 mps 721 mmHg 59%
    06:00 +22°C° 0 mm 3 mps 721 mmHg 58%
    07:00 +25°C° 0 mm 3 mps 721 mmHg 53%
    08:00 +26°C° 0 mm 3 mps 721 mmHg 48%
    09:00 +28°C° 0 mm 4 mps 721 mmHg 43%
    10:00 +29°C° 0 mm 4 mps 720 mmHg 41%
    11:00 +30°C° 0 mm 4 mps 720 mmHg 40%
    12:00 +32°C° 0 mm 4 mps 720 mmHg 38%
    13:00 +31°C° 0.3 mm 3 mps 720 mmHg 38%
    14:00 +31°C° 0.3 mm 3 mps 719 mmHg 38%
    15:00 +33°C° 0.3 mm 3 mps 719 mmHg 38%
    16:00 +31°C° 0.5 mm 3 mps 720 mmHg 42%
    17:00 +30°C° 0.5 mm 3 mps 720 mmHg 45%
    18:00 +29°C° 0.5 mm 3 mps 720 mmHg 49%
    19:00 +27°C° 0.3 mm 3 mps 721 mmHg 52%
    20:00 +26°C° 0.3 mm 3 mps 721 mmHg 56%
    21:00 +24°C° 0.3 mm 2 mps 722 mmHg 60%
    22:00 +24°C° 0.2 mm 2 mps 722 mmHg 63%
    23:00 +23°C° 0.2 mm 2 mps 722 mmHg 66%
    Show more